TimeCST,TemperatureF,Dew PointF,Humidity,Sea Level PressureIn,VisibilityMPH,Wind Direction,Wind SpeedMPH,Gust SpeedMPH,PrecipitationIn,Events,Conditions,WindDirDegrees,DateUTC
12:55 AM,37.4,27.7,68,30.18,10.0,East,6.9,-,N/A,,Clear,100,2013-02-02 06:55:00
1:55 AM,36.5,28.2,72,30.17,10.0,ESE,6.9,-,N/A,,Clear,110,2013-02-02 07:55:00
2:55 AM,33.8,26.6,75,30.17,10.0,ESE,8.1,-,N/A,,Clear,120,2013-02-02 08:55:00
3:55 AM,33.6,25.3,72,30.17,10.0,SE,11.5,-,N/A,,Clear,140,2013-02-02 09:55:00
4:55 AM,31.8,25.7,78,30.18,10.0,South,3.5,-,N/A,,Clear,190,2013-02-02 10:55:00
5:55 AM,33.6,24.3,69,30.21,10.0,North,5.8,-,N/A,,Clear,350,2013-02-02 11:55:00
6:55 AM,30.9,25.9,82,30.24,10.0,NW,4.6,-,N/A,,Clear,320,2013-02-02 12:55:00
7:55 AM,30.4,25.7,83,30.25,10.0,NW,6.9,-,N/A,,Clear,310,2013-02-02 13:55:00
8:55 AM,36.5,26.8,68,30.27,10.0,NW,5.8,-,N/A,,Clear,320,2013-02-02 14:55:00
9:55 AM,48.2,32.0,54,30.40,10.0,NNW,12.7,-,N/A,,Clear,340,2013-02-02 15:55:00
10:55 AM,47.1,30.6,53,30.31,10.0,NNW,11.5,-,N/A,,Clear,330,2013-02-02 16:55:00
11:55 AM,51.4,32.0,47,30.31,10.0,NNW,11.5,-,N/A,,Clear,340,2013-02-02 17:55:00
12:55 PM,54.3,33.1,45,30.29,10.0,North,12.7,-,N/A,,Clear,350,2013-02-02 18:55:00
1:55 PM,56.7,33.8,42,30.28,10.0,NW,12.7,-,N/A,,Clear,310,2013-02-02 19:55:00
2:55 PM,57.6,32.5,39,30.27,10.0,NW,11.5,-,N/A,,Clear,320,2013-02-02 20:55:00
3:55 PM,58.5,32.5,38,30.27,10.0,NW,10.4,-,N/A,,Clear,310,2013-02-02 21:55:00
4:55 PM,57.7,31.1,36,30.27,10.0,WNW,5.8,-,N/A,,Clear,290,2013-02-02 22:55:00
5:55 PM,54.1,30.9,41,30.28,10.0,WNW,6.9,-,N/A,,Clear,300,2013-02-02 23:55:00
6:55 PM,50.5,30.7,47,30.30,10.0,West,4.6,-,N/A,,Clear,260,2013-02-03 00:55:00
7:55 PM,48.4,31.1,51,30.30,10.0,WSW,5.8,-,N/A,,Clear,240,2013-02-03 01:55:00
8:55 PM,47.7,31.1,53,30.30,10.0,WSW,8.1,-,N/A,,Clear,240,2013-02-03 02:55:00
9:55 PM,46.4,30.2,53,30.31,10.0,West,4.6,-,N/A,,Clear,270,2013-02-03 03:55:00
10:55 PM,47.1,29.8,51,30.31,10.0,WSW,5.8,-,N/A,,Clear,240,2013-02-03 04:55:00
11:55 PM,45.9,30.2,54,30.31,10.0,SW,5.8,-,N/A,,Clear,230,2013-02-03 05:55:00